owner,sensor,date,latitude,longitude,vertical_datum,wind_speed,wind_to_direction,wind_speed_of_gust,qcFlag 
WAVCIS,ioos:station:WAVCIS:CSI03:3,2013-01-01T00:00:00Z,29.4412,-92.0613,10.0,8.48,128.0,,'11111222,11111222,99999999' 
WAVCIS,ioos:station:WAVCIS:CSI03:3,2013-01-01T01:00:00Z,29.4412,-92.0613,10.0,9.27,132.0,,'11111222,11111222,99999999' 
WAVCIS,ioos:station:WAVCIS:CSI03:3,2013-01-01T02:00:00Z,29.4412,-92.0613,10.0,8.18,134.0,,'11111222,11111222,99999999' 
WAVCIS,ioos:station:WAVCIS:CSI03:3,2013-01-01T03:00:00Z,29.4412,-92.0613,10.0,6.33,148.0,,'11111222,11111222,99999999' 
WAVCIS,ioos:station:WAVCIS:CSI03:3,2013-01-01T04:00:00Z,29.4412,-92.0613,10.0,7.27,154.0,,'11111222,11111222,99999999' 
WAVCIS,ioos:station:WAVCIS:CSI03:3,2013-01-01T05:00:00Z,29.4412,-92.0613,10.0,6.939,154.0,,'11111222,11111222,99999999' 
WAVCIS,ioos:station:WAVCIS:CSI03:3,2013-01-01T06:00:00Z,29.4412,-92.0613,10.0,6.551,160.0,,'11111222,11111222,99999999' 
WAVCIS,ioos:station:WAVCIS:CSI03:3,2013-01-01T07:00:00Z,29.4412,-92.0613,10.0,6.971,168.0,,'11111222,11111222,99999999' 
WAVCIS,ioos:station:WAVCIS:CSI03:3,2013-01-01T08:00:00Z,29.4412,-92.0613,10.0,9.99,175.0,,'11111222,11111222,99999999' 
WAVCIS,ioos:station:WAVCIS:CSI03:3,2013-01-01T09:00:00Z,29.4412,-92.0613,10.0,9.03,174.0,,'11111222,11111222,99999999' 
WAVCIS,ioos:station:WAVCIS:CSI03:3,2013-01-01T10:00:00Z,29.4412,-92.0613,10.0,8.79,174.0,,'11111222,11111222,99999999' 
WAVCIS,ioos:station:WAVCIS:CSI03:3,2013-01-01T11:00:00Z,29.4412,-92.0613,10.0,7.75,171.0,,'11111222,11111222,99999999' 
WAVCIS,ioos:station:WAVCIS:CSI03:3,2013-01-01T12:00:00Z,29.4412,-92.0613,10.0,6.584,171.0,,'11111222,11111222,99999999' 
WAVCIS,ioos:station:WAVCIS:CSI03:3,2013-01-01T13:00:00Z,29.4412,-92.0613,10.0,7.98,176.0,,'11111222,11111222,99999999' 
WAVCIS,ioos:station:WAVCIS:CSI03:3,2013-01-01T14:00:00Z,29.4412,-92.0613,10.0,6.341,180.0,,'11111222,11111222,99999999' 
WAVCIS,ioos:station:WAVCIS:CSI03:3,2013-01-01T15:00:00Z,29.4412,-92.0613,10.0,6.392,180.0,,'11111222,11111222,99999999' 
WAVCIS,ioos:station:WAVCIS:CSI03:3,2013-01-01T16:00:00Z,29.4412,-92.0613,10.0,2.323,192.0,,'11111222,11111222,99999999' 
WAVCIS,ioos:station:WAVCIS:CSI03:3,2013-01-01T17:00:00Z,29.4412,-92.0613,10.0,2.745,191.0,,'11111222,11111222,99999999' 
WAVCIS,ioos:station:WAVCIS:CSI03:3,2013-01-01T18:00:00Z,29.4412,-92.0613,10.0,3.494,186.0,,'11111222,11111222,99999999' 
WAVCIS,ioos:station:WAVCIS:CSI03:3,2013-01-01T19:00:00Z,29.4412,-92.0613,10.0,4.475,199.0,,'11111222,11111222,99999999' 
WAVCIS,ioos:station:WAVCIS:CSI03:3,2013-01-01T20:00:00Z,29.4412,-92.0613,10.0,5.33,359.0,,'11111222,11111222,99999999' 
WAVCIS,ioos:station:WAVCIS:CSI03:3,2013-01-01T21:00:00Z,29.4412,-92.0613,10.0,7.71,358.0,,'11111222,11111222,99999999' 
WAVCIS,ioos:station:WAVCIS:CSI03:3,2013-01-01T22:00:00Z,29.4412,-92.0613,10.0,7.4,2.0,,'11111222,11111222,99999999' 
WAVCIS,ioos:station:WAVCIS:CSI03:3,2013-01-01T23:00:00Z,29.4412,-92.0613,10.0,7.15,3.0,,'11111222,11111222,99999999' 
WAVCIS,ioos:station:WAVCIS:CSI03:3,2013-01-02T00:00:00Z,29.4412,-92.0613,10.0,7.97,3.0,,'11111222,11111222,99999999' 
WAVCIS,ioos:station:WAVCIS:CSI03:3,2013-01-02T01:00:00Z,29.4412,-92.0613,10.0,7.93,19.0,,'11111222,11111222,99999999' 
WAVCIS,ioos:station:WAVCIS:CSI03:3,2013-01-02T02:00:00Z,29.4412,-92.0613,10.0,7.03,15.0,,'11111222,11111222,99999999' 
WAVCIS,ioos:station:WAVCIS:CSI03:3,2013-01-02T03:00:00Z,29.4412,-92.0613,10.0,7.06,23.0,,'11111222,11111222,99999999' 
WAVCIS,ioos:station:WAVCIS:CSI03:3,2013-01-02T04:00:00Z,29.4412,-92.0613,10.0,7.61,15.0,,'11111222,11111222,99999999' 
WAVCIS,ioos:station:WAVCIS:CSI03:3,2013-01-02T05:00:00Z,29.4412,-92.0613,10.0,5.695,6.0,,'11111222,11111222,99999999' 
WAVCIS,ioos:station:WAVCIS:CSI03:3,2013-01-02T06:00:00Z,29.4412,-92.0613,10.0,5.335,27.0,,'11111222,11111222,99999999' 
WAVCIS,ioos:station:WAVCIS:CSI03:3,2013-01-02T07:00:00Z,29.4412,-92.0613,10.0,8.68,21.0,,'11111222,11111222,99999999' 
WAVCIS,ioos:station:WAVCIS:CSI03:3,2013-01-02T08:00:00Z,29.4412,-92.0613,10.0,8.39,20.0,,'11111222,11111222,99999999' 
WAVCIS,ioos:station:WAVCIS:CSI03:3,2013-01-02T09:00:00Z,29.4412,-92.0613,10.0,7.07,28.0,,'11111222,11111222,99999999' 
WAVCIS,ioos:station:WAVCIS:CSI03:3,2013-01-02T10:00:00Z,29.4412,-92.0613,10.0,7.03,30.0,,'11111222,11111222,99999999' 
WAVCIS,ioos:station:WAVCIS:CSI03:3,2013-01-02T11:00:00Z,29.4412,-92.0613,10.0,8.78,10.0,,'11111222,11111222,99999999' 
WAVCIS,ioos:station:WAVCIS:CSI03:3,2013-01-02T12:00:00Z,29.4412,-92.0613,10.0,8.51,17.0,,'11111222,11111222,99999999' 
WAVCIS,ioos:station:WAVCIS:CSI03:3,2013-01-02T13:00:00Z,29.4412,-92.0613,10.0,7.09,15.0,,'11111222,11111222,99999999' 
WAVCIS,ioos:station:WAVCIS:CSI03:3,2013-01-02T14:00:00Z,29.4412,-92.0613,10.0,7.92,5.0,,'11111222,11111222,99999999' 
WAVCIS,ioos:station:WAVCIS:CSI03:3,2013-01-02T15:00:00Z,29.4412,-92.0613,10.0,7.28,25.0,,'11111222,11111222,99999999' 
WAVCIS,ioos:station:WAVCIS:CSI03:3,2013-01-02T16:00:00Z,29.4412,-92.0613,10.0,6.977,27.0,,'11111222,11111222,99999999' 
WAVCIS,ioos:station:WAVCIS:CSI03:3,2013-01-02T17:00:00Z,29.4412,-92.0613,10.0,7.75,15.0,,'11111222,11111222,99999999' 
WAVCIS,ioos:station:WAVCIS:CSI03:3,2013-01-02T18:00:00Z,29.4412,-92.0613,10.0,7.61,7.0,,'11111222,11111222,99999999' 
WAVCIS,ioos:station:WAVCIS:CSI03:3,2013-01-02T19:00:00Z,29.4412,-92.0613,10.0,5.606,20.0,,'11111222,11111222,99999999' 
WAVCIS,ioos:station:WAVCIS:CSI03:3,2013-01-02T20:00:00Z,29.4412,-92.0613,10.0,4.623,357.0,,'11111222,11111222,99999999' 
WAVCIS,ioos:station:WAVCIS:CSI03:3,2013-01-02T21:00:00Z,29.4412,-92.0613,10.0,5.617,17.0,,'11111222,11111222,99999999' 
WAVCIS,ioos:station:WAVCIS:CSI03:3,2013-01-02T22:00:00Z,29.4412,-92.0613,10.0,6.072,3.0,,'11111222,11111222,99999999' 
WAVCIS,ioos:station:WAVCIS:CSI03:3,2013-01-02T23:00:00Z,29.4412,-92.0613,10.0,7.93,5.0,,'11111222,11111222,99999999' 
WAVCIS,ioos:station:WAVCIS:CSI03:3,2013-01-03T00:00:00Z,29.4412,-92.0613,10.0,7.3,9.0,,'11111222,11111222,99999999' 
WAVCIS,ioos:station:WAVCIS:CSI03:3,2013-01-03T01:00:00Z,29.4412,-92.0613,10.0,6.724,29.0,,'11111222,11111222,99999999' 
WAVCIS,ioos:station:WAVCIS:CSI03:3,2013-01-03T02:00:00Z,29.4412,-92.0613,10.0,6.964,19.0,,'11111222,11111222,99999999' 
WAVCIS,ioos:station:WAVCIS:CSI03:3,2013-01-03T03:00:00Z,29.4412,-92.0613,10.0,6.913,11.0,,'11111222,11111222,99999999' 
WAVCIS,ioos:station:WAVCIS:CSI03:3,2013-01-03T04:00:00Z,29.4412,-92.0613,10.0,8.01,13.0,,'11111222,11111222,99999999' 
WAVCIS,ioos:station:WAVCIS:CSI03:3,2013-01-03T05:00:00Z,29.4412,-92.0613,10.0,6.969,41.0,,'11111222,11111222,99999999' 
WAVCIS,ioos:station:WAVCIS:CSI03:3,2013-01-03T06:00:00Z,29.4412,-92.0613,10.0,6.272,37.0,,'11111222,11111222,99999999' 
WAVCIS,ioos:station:WAVCIS:CSI03:3,2013-01-03T07:00:00Z,29.4412,-92.0613,10.0,6.502,30.0,,'11111222,11111222,99999999' 
WAVCIS,ioos:station:WAVCIS:CSI03:3,2013-01-03T08:00:00Z,29.4412,-92.0613,10.0,6.526,26.0,,'11111222,11111222,99999999' 
WAVCIS,ioos:station:WAVCIS:CSI03:3,2013-01-03T09:00:00Z,29.4412,-92.0613,10.0,7.24,29.0,,'11111222,11111222,99999999' 
WAVCIS,ioos:station:WAVCIS:CSI03:3,2013-01-03T10:00:00Z,29.4412,-92.0613,10.0,7.15,31.0,,'11111222,11111222,99999999' 
WAVCIS,ioos:station:WAVCIS:CSI03:3,2013-01-03T11:00:00Z,29.4412,-92.0613,10.0,7.4,31.0,,'11111222,11111222,99999999' 
WAVCIS,ioos:station:WAVCIS:CSI03:3,2013-01-03T12:00:00Z,29.4412,-92.0613,10.0,7.4,31.0,,'11111222,11111222,99999999' 
WAVCIS,ioos:station:WAVCIS:CSI03:3,2013-01-03T13:00:00Z,29.4412,-92.0613,10.0,7.04,32.0,,'11111222,11111222,99999999' 
WAVCIS,ioos:station:WAVCIS:CSI03:3,2013-01-03T14:00:00Z,29.4412,-92.0613,10.0,7.76,38.0,,'11111222,11111222,99999999' 
WAVCIS,ioos:station:WAVCIS:CSI03:3,2013-01-03T15:00:00Z,29.4412,-92.0613,10.0,7.19,33.0,,'11111222,11111222,99999999' 
WAVCIS,ioos:station:WAVCIS:CSI03:3,2013-01-03T16:00:00Z,29.4412,-92.0613,10.0,7.44,37.0,,'11111222,11111222,99999999' 
WAVCIS,ioos:station:WAVCIS:CSI03:3,2013-01-03T17:00:00Z,29.4412,-92.0613,10.0,7.32,37.0,,'11111222,11111222,99999999' 
WAVCIS,ioos:station:WAVCIS:CSI03:3,2013-01-03T18:00:00Z,29.4412,-92.0613,10.0,7.6,26.0,,'11111222,11111222,99999999' 
WAVCIS,ioos:station:WAVCIS:CSI03:3,2013-01-03T19:00:00Z,29.4412,-92.0613,10.0,6.851,23.0,,'11111222,11111222,99999999' 
WAVCIS,ioos:station:WAVCIS:CSI03:3,2013-01-03T20:00:00Z,29.4412,-92.0613,10.0,6.774,23.0,,'11111222,11111222,99999999' 
WAVCIS,ioos:station:WAVCIS:CSI03:3,2013-01-03T21:00:00Z,29.4412,-92.0613,10.0,5.902,35.0,,'11111222,11111222,99999999' 
WAVCIS,ioos:station:WAVCIS:CSI03:3,2013-01-03T22:00:00Z,29.4412,-92.0613,10.0,6.14,33.0,,'11111222,11111222,99999999' 
WAVCIS,ioos:station:WAVCIS:CSI03:3,2013-01-03T23:00:00Z,29.4412,-92.0613,10.0,5.718,30.0,,'11111222,11111222,99999999' 
WAVCIS,ioos:station:WAVCIS:CSI03:3,2013-01-04T00:00:00Z,29.4412,-92.0613,10.0,5.9,22.0,,'11111222,11111222,99999999' 
WAVCIS,ioos:station:WAVCIS:CSI03:3,2013-01-04T01:00:00Z,29.4412,-92.0613,10.0,6.548,16.0,,'11111222,11111222,99999999' 
WAVCIS,ioos:station:WAVCIS:CSI03:3,2013-01-04T02:00:00Z,29.4412,-92.0613,10.0,7.28,28.0,,'11111222,11111222,99999999' 
WAVCIS,ioos:station:WAVCIS:CSI03:3,2013-01-04T03:00:00Z,29.4412,-92.0613,10.0,6.618,31.0,,'11111222,11111222,99999999' 
WAVCIS,ioos:station:WAVCIS:CSI03:3,2013-01-04T04:00:00Z,29.4412,-92.0613,10.0,6.47,36.0,,'11111222,11111222,99999999' 
WAVCIS,ioos:station:WAVCIS:CSI03:3,2013-01-04T05:00:00Z,29.4412,-92.0613,10.0,5.952,32.0,,'11111222,11111222,99999999' 
WAVCIS,ioos:station:WAVCIS:CSI03:3,2013-01-04T06:00:00Z,29.4412,-92.0613,10.0,9.73,49.0,,'11111222,11111222,99999999' 
WAVCIS,ioos:station:WAVCIS:CSI03:3,2013-01-04T07:00:00Z,29.4412,-92.0613,10.0,7.88,53.0,,'11111222,11111222,99999999' 
WAVCIS,ioos:station:WAVCIS:CSI03:3,2013-01-04T08:00:00Z,29.4412,-92.0613,10.0,8.68,48.0,,'11111222,11111222,99999999' 
WAVCIS,ioos:station:WAVCIS:CSI03:3,2013-01-04T09:00:00Z,29.4412,-92.0613,10.0,9.21,61.0,,'11111222,11111222,99999999' 
WAVCIS,ioos:station:WAVCIS:CSI03:3,2013-01-04T10:00:00Z,29.4412,-92.0613,10.0,8.14,57.0,,'11111222,11111222,99999999' 
WAVCIS,ioos:station:WAVCIS:CSI03:3,2013-01-04T11:00:00Z,29.4412,-92.0613,10.0,7.8,50.0,,'11111222,11111222,99999999' 
WAVCIS,ioos:station:WAVCIS:CSI03:3,2013-01-04T12:00:00Z,29.4412,-92.0613,10.0,7.79,49.0,,'11111222,11111222,99999999' 
WAVCIS,ioos:station:WAVCIS:CSI03:3,2013-01-04T13:00:00Z,29.4412,-92.0613,10.0,9.31,48.0,,'11111222,11111222,99999999' 
WAVCIS,ioos:station:WAVCIS:CSI03:3,2013-01-04T14:00:00Z,29.4412,-92.0613,10.0,8.96,50.0,,'11111222,11111222,99999999' 
WAVCIS,ioos:station:WAVCIS:CSI03:3,2013-01-04T15:00:00Z,29.4412,-92.0613,10.0,8.36,63.0,,'11111222,11111222,99999999' 
WAVCIS,ioos:station:WAVCIS:CSI03:3,2013-01-04T16:00:00Z,29.4412,-92.0613,10.0,5.186,46.0,,'11111222,11111222,99999999' 
WAVCIS,ioos:station:WAVCIS:CSI03:3,2013-01-04T17:00:00Z,29.4412,-92.0613,10.0,5.491,21.0,,'11111222,11111222,99999999' 
WAVCIS,ioos:station:WAVCIS:CSI03:3,2013-01-04T18:00:00Z,29.4412,-92.0613,10.0,5.156,25.0,,'11111222,11111222,99999999' 
WAVCIS,ioos:station:WAVCIS:CSI03:3,2013-01-04T19:00:00Z,29.4412,-92.0613,10.0,5.227,30.0,,'11111222,11111222,99999999' 
WAVCIS,ioos:station:WAVCIS:CSI03:3,2013-01-04T20:00:00Z,29.4412,-92.0613,10.0,4.129,30.0,,'11111222,11111222,99999999' 
WAVCIS,ioos:station:WAVCIS:CSI03:3,2013-01-04T21:00:00Z,29.4412,-92.0613,10.0,5.192,24.0,,'11111222,11111222,99999999' 
WAVCIS,ioos:station:WAVCIS:CSI03:3,2013-01-04T22:00:00Z,29.4412,-92.0613,10.0,4.813,26.0,,'11111222,11111222,99999999' 
WAVCIS,ioos:station:WAVCIS:CSI03:3,2013-01-04T23:00:00Z,29.4412,-92.0613,10.0,3.59,36.0,,'11111222,11111222,99999999' 
WAVCIS,ioos:station:WAVCIS:CSI03:3,2013-01-05T00:00:00Z,29.4412,-92.0613,10.0,4.029,30.0,,'11111222,11111222,99999999' 
WAVCIS,ioos:station:WAVCIS:CSI03:3,2013-01-05T01:00:00Z,29.4412,-92.0613,10.0,3.406,29.0,,'11111222,11111222,99999999' 
WAVCIS,ioos:station:WAVCIS:CSI03:3,2013-01-05T02:00:00Z,29.4412,-92.0613,10.0,4.103,36.0,,'11111222,11111222,99999999' 
WAVCIS,ioos:station:WAVCIS:CSI03:3,2013-01-05T03:00:00Z,29.4412,-92.0613,10.0,6.085,43.0,,'11111222,11111222,99999999' 
WAVCIS,ioos:station:WAVCIS:CSI03:3,2013-01-05T04:00:00Z,29.4412,-92.0613,10.0,6.023,41.0,,'11111222,11111222,99999999' 
WAVCIS,ioos:station:WAVCIS:CSI03:3,2013-01-05T05:00:00Z,29.4412,-92.0613,10.0,6.733,45.0,,'11111222,11111222,99999999' 
WAVCIS,ioos:station:WAVCIS:CSI03:3,2013-01-05T06:00:00Z,29.4412,-92.0613,10.0,7.38,55.0,,'11111222,11111222,99999999' 
WAVCIS,ioos:station:WAVCIS:CSI03:3,2013-01-05T07:00:00Z,29.4412,-92.0613,10.0,3.787,54.0,,'11111222,11111222,99999999' 
WAVCIS,ioos:station:WAVCIS:CSI03:3,2013-01-05T08:00:00Z,29.4412,-92.0613,10.0,2.997,47.0,,'11111222,11111222,99999999' 
WAVCIS,ioos:station:WAVCIS:CSI03:3,2013-01-05T09:00:00Z,29.4412,-92.0613,10.0,4.287,46.0,,'11111222,11111222,99999999' 
WAVCIS,ioos:station:WAVCIS:CSI03:3,2013-01-05T10:00:00Z,29.4412,-92.0613,10.0,4.526,15.0,,'11111222,11111222,99999999' 
WAVCIS,ioos:station:WAVCIS:CSI03:3,2013-01-05T11:00:00Z,29.4412,-92.0613,10.0,6.225,25.0,,'11111222,11111222,99999999' 
WAVCIS,ioos:station:WAVCIS:CSI03:3,2013-01-05T12:00:00Z,29.4412,-92.0613,10.0,7.43,47.0,,'11111222,11111222,99999999' 
WAVCIS,ioos:station:WAVCIS:CSI03:3,2013-01-05T13:00:00Z,29.4412,-92.0613,10.0,6.127,43.0,,'11111222,11111222,99999999' 
WAVCIS,ioos:station:WAVCIS:CSI03:3,2013-01-05T14:00:00Z,29.4412,-92.0613,10.0,5.352,32.0,,'11111222,11111222,99999999' 
WAVCIS,ioos:station:WAVCIS:CSI03:3,2013-01-05T15:00:00Z,29.4412,-92.0613,10.0,6.99,43.0,,'11111222,11111222,99999999' 
WAVCIS,ioos:station:WAVCIS:CSI03:3,2013-01-05T16:00:00Z,29.4412,-92.0613,10.0,8.46,47.0,,'11111222,11111222,99999999' 
WAVCIS,ioos:station:WAVCIS:CSI03:3,2013-01-05T17:00:00Z,29.4412,-92.0613,10.0,6.915,48.0,,'11111222,11111222,99999999' 
WAVCIS,ioos:station:WAVCIS:CSI03:3,2013-01-05T18:00:00Z,29.4412,-92.0613,10.0,7.1,50.0,,'11111222,11111222,99999999' 
WAVCIS,ioos:station:WAVCIS:CSI03:3,2013-01-05T19:00:00Z,29.4412,-92.0613,10.0,5.995,44.0,,'11111222,11111222,99999999' 
WAVCIS,ioos:station:WAVCIS:CSI03:3,2013-01-05T20:00:00Z,29.4412,-92.0613,10.0,7.35,49.0,,'11111222,11111222,99999999' 
WAVCIS,ioos:station:WAVCIS:CSI03:3,2013-01-05T21:00:00Z,29.4412,-92.0613,10.0,6.352,25.0,,'11111222,11111222,99999999' 
WAVCIS,ioos:station:WAVCIS:CSI03:3,2013-01-05T22:00:00Z,29.4412,-92.0613,10.0,7.47,42.0,,'11111222,11111222,99999999' 
WAVCIS,ioos:station:WAVCIS:CSI03:3,2013-01-05T23:00:00Z,29.4412,-92.0613,10.0,8.64,54.0,,'11111222,11111222,99999999' 
WAVCIS,ioos:station:WAVCIS:CSI03:3,2013-01-06T00:00:00Z,29.4412,-92.0613,10.0,8.19,56.0,,'11111222,11111222,99999999' 
WAVCIS,ioos:station:WAVCIS:CSI03:3,2013-01-06T01:00:00Z,29.4412,-92.0613,10.0,6.543,50.0,,'11111222,11111222,99999999' 
WAVCIS,ioos:station:WAVCIS:CSI03:3,2013-01-06T02:00:00Z,29.4412,-92.0613,10.0,4.826,38.0,,'11111222,11111222,99999999' 
WAVCIS,ioos:station:WAVCIS:CSI03:3,2013-01-06T03:00:00Z,29.4412,-92.0613,10.0,5.651,43.0,,'11111222,11111222,99999999' 
WAVCIS,ioos:station:WAVCIS:CSI03:3,2013-01-06T04:00:00Z,29.4412,-92.0613,10.0,4.852,44.0,,'11111222,11111222,99999999' 
WAVCIS,ioos:station:WAVCIS:CSI03:3,2013-01-06T05:00:00Z,29.4412,-92.0613,10.0,4.839,43.0,,'11111222,11111222,99999999' 
WAVCIS,ioos:station:WAVCIS:CSI03:3,2013-01-06T06:00:00Z,29.4412,-92.0613,10.0,3.796,37.0,,'11111222,11111222,99999999' 
WAVCIS,ioos:station:WAVCIS:CSI03:3,2013-01-06T07:00:00Z,29.4412,-92.0613,10.0,4.507,359.0,,'11111222,11111222,99999999' 
WAVCIS,ioos:station:WAVCIS:CSI03:3,2013-01-06T08:00:00Z,29.4412,-92.0613,10.0,5.125,2.0,,'11111222,11111222,99999999' 
WAVCIS,ioos:station:WAVCIS:CSI03:3,2013-01-06T09:00:00Z,29.4412,-92.0613,10.0,6.219,7.0,,'11111222,11111222,99999999' 
WAVCIS,ioos:station:WAVCIS:CSI03:3,2013-01-06T10:00:00Z,29.4412,-92.0613,10.0,8.39,9.0,,'11111222,11111222,99999999' 
WAVCIS,ioos:station:WAVCIS:CSI03:3,2013-01-06T11:00:00Z,29.4412,-92.0613,10.0,7.28,23.0,,'11111222,11111222,99999999' 
WAVCIS,ioos:station:WAVCIS:CSI03:3,2013-01-06T12:00:00Z,29.4412,-92.0613,10.0,7.5,14.0,,'11111222,11111222,99999999' 
WAVCIS,ioos:station:WAVCIS:CSI03:3,2013-01-06T13:00:00Z,29.4412,-92.0613,10.0,8.98,16.0,,'11111222,11111222,99999999' 
WAVCIS,ioos:station:WAVCIS:CSI03:3,2013-01-06T14:00:00Z,29.4412,-92.0613,10.0,7.1,33.0,,'11111222,11111222,99999999' 
WAVCIS,ioos:station:WAVCIS:CSI03:3,2013-01-06T15:00:00Z,29.4412,-92.0613,10.0,7.63,31.0,,'11111222,11111222,99999999' 
WAVCIS,ioos:station:WAVCIS:CSI03:3,2013-01-06T16:00:00Z,29.4412,-92.0613,10.0,7.94,27.0,,'11111222,11111222,99999999' 
WAVCIS,ioos:station:WAVCIS:CSI03:3,2013-01-06T17:00:00Z,29.4412,-92.0613,10.0,8.09,25.0,,'11111222,11111222,99999999' 
WAVCIS,ioos:station:WAVCIS:CSI03:3,2013-01-06T18:00:00Z,29.4412,-92.0613,10.0,7.37,28.0,,'11111222,11111222,99999999' 
WAVCIS,ioos:station:WAVCIS:CSI03:3,2013-01-06T19:00:00Z,29.4412,-92.0613,10.0,6.393,31.0,,'11111222,11111222,99999999' 
WAVCIS,ioos:station:WAVCIS:CSI03:3,2013-01-06T20:00:00Z,29.4412,-92.0613,10.0,5.885,24.0,,'11111222,11111222,99999999' 
WAVCIS,ioos:station:WAVCIS:CSI03:3,2013-01-06T21:00:00Z,29.4412,-92.0613,10.0,5.924,38.0,,'11111222,11111222,99999999' 
WAVCIS,ioos:station:WAVCIS:CSI03:3,2013-01-06T22:00:00Z,29.4412,-92.0613,10.0,4.951,33.0,,'11111222,11111222,99999999' 
WAVCIS,ioos:station:WAVCIS:CSI03:3,2013-01-06T23:00:00Z,29.4412,-92.0613,10.0,4.125,43.0,,'11111222,11111222,99999999' 
WAVCIS,ioos:station:WAVCIS:CSI03:3,2013-01-07T00:00:00Z,29.4412,-92.0613,10.0,3.055,36.0,,'11111222,11111222,99999999' 
WAVCIS,ioos:station:WAVCIS:CSI03:3,2013-01-07T01:00:00Z,29.4412,-92.0613,10.0,4.113,46.0,,'11111222,11111222,99999999' 
WAVCIS,ioos:station:WAVCIS:CSI03:3,2013-01-07T02:00:00Z,29.4412,-92.0613,10.0,3.549,37.0,,'11111222,11111222,99999999' 
WAVCIS,ioos:station:WAVCIS:CSI03:3,2013-01-07T03:00:00Z,29.4412,-92.0613,10.0,5.634,29.0,,'11111222,11111222,99999999' 
WAVCIS,ioos:station:WAVCIS:CSI03:3,2013-01-07T04:00:00Z,29.4412,-92.0613,10.0,5.497,34.0,,'11111222,11111222,99999999' 
WAVCIS,ioos:station:WAVCIS:CSI03:3,2013-01-07T05:00:00Z,29.4412,-92.0613,10.0,4.802,37.0,,'11111222,11111222,99999999' 
WAVCIS,ioos:station:WAVCIS:CSI03:3,2013-01-07T06:00:00Z,29.4412,-92.0613,10.0,5.463,44.0,,'11111222,11111222,99999999' 
WAVCIS,ioos:station:WAVCIS:CSI03:3,2013-01-07T07:00:00Z,29.4412,-92.0613,10.0,6.075,46.0,,'11111222,11111222,99999999' 
WAVCIS,ioos:station:WAVCIS:CSI03:3,2013-01-07T08:00:00Z,29.4412,-92.0613,10.0,8.46,52.0,,'11111222,11111222,99999999' 
WAVCIS,ioos:station:WAVCIS:CSI03:3,2013-01-07T09:00:00Z,29.4412,-92.0613,10.0,10.17,51.0,,'11111222,11111222,99999999' 
WAVCIS,ioos:station:WAVCIS:CSI03:3,2013-01-07T10:00:00Z,29.4412,-92.0613,10.0,8.41,56.0,,'11111222,11111222,99999999' 
WAVCIS,ioos:station:WAVCIS:CSI03:3,2013-01-07T11:00:00Z,29.4412,-92.0613,10.0,7.37,60.0,,'11111222,11111222,99999999' 
WAVCIS,ioos:station:WAVCIS:CSI03:3,2013-01-07T12:00:00Z,29.4412,-92.0613,10.0,7.22,64.0,,'11111222,11111222,99999999' 
WAVCIS,ioos:station:WAVCIS:CSI03:3,2013-01-07T13:00:00Z,29.4412,-92.0613,10.0,5.894,60.0,,'11111222,11111222,99999999' 
WAVCIS,ioos:station:WAVCIS:CSI03:3,2013-01-07T14:00:00Z,29.4412,-92.0613,10.0,6.564,54.0,,'11111222,11111222,99999999' 
WAVCIS,ioos:station:WAVCIS:CSI03:3,2013-01-07T15:00:00Z,29.4412,-92.0613,10.0,6.617,67.0,,'11111222,11111222,99999999' 
WAVCIS,ioos:station:WAVCIS:CSI03:3,2013-01-07T16:00:00Z,29.4412,-92.0613,10.0,5.566,68.0,,'11111222,11111222,99999999' 
WAVCIS,ioos:station:WAVCIS:CSI03:3,2013-01-07T17:00:00Z,29.4412,-92.0613,10.0,5.76,85.0,,'11111222,11111222,99999999' 
WAVCIS,ioos:station:WAVCIS:CSI03:3,2013-01-07T18:00:00Z,29.4412,-92.0613,10.0,5.096,82.0,,'11111222,11111222,99999999' 
WAVCIS,ioos:station:WAVCIS:CSI03:3,2013-01-07T19:00:00Z,29.4412,-92.0613,10.0,4.072,101.0,,'11111222,11111222,99999999' 
WAVCIS,ioos:station:WAVCIS:CSI03:3,2013-01-07T20:00:00Z,29.4412,-92.0613,10.0,2.856,69.0,,'11111222,11111222,99999999' 
WAVCIS,ioos:station:WAVCIS:CSI03:3,2013-01-07T21:00:00Z,29.4412,-92.0613,10.0,4.331,53.0,,'11111222,11111222,99999999' 
WAVCIS,ioos:station:WAVCIS:CSI03:3,2013-01-07T22:00:00Z,29.4412,-92.0613,10.0,3.858,45.0,,'11111222,11111222,99999999' 
WAVCIS,ioos:station:WAVCIS:CSI03:3,2013-01-07T23:00:00Z,29.4412,-92.0613,10.0,5.226,57.0,,'11111222,11111222,99999999' 
WAVCIS,ioos:station:WAVCIS:CSI03:3,2013-01-08T00:00:00Z,29.4412,-92.0613,10.0,5.662,58.0,,'11111222,11111222,99999999' 
WAVCIS,ioos:station:WAVCIS:CSI03:3,2013-01-08T01:00:00Z,29.4412,-92.0613,10.0,5.743,60.0,,'11111222,11111222,99999999' 
WAVCIS,ioos:station:WAVCIS:CSI03:3,2013-01-08T02:00:00Z,29.4412,-92.0613,10.0,5.51,69.0,,'11111222,11111222,99999999' 
WAVCIS,ioos:station:WAVCIS:CSI03:3,2013-01-08T03:00:00Z,29.4412,-92.0613,10.0,7.03,64.0,,'11111222,11111222,99999999' 
WAVCIS,ioos:station:WAVCIS:CSI03:3,2013-01-08T04:00:00Z,29.4412,-92.0613,10.0,6.772,89.0,,'11111222,11111222,99999999' 
WAVCIS,ioos:station:WAVCIS:CSI03:3,2013-01-08T05:00:00Z,29.4412,-92.0613,10.0,8.43,102.0,,'11111222,11111222,99999999' 
WAVCIS,ioos:station:WAVCIS:CSI03:3,2013-01-08T06:00:00Z,29.4412,-92.0613,10.0,8.26,99.0,,'11111222,11111222,99999999' 
WAVCIS,ioos:station:WAVCIS:CSI03:3,2013-01-08T07:00:00Z,29.4412,-92.0613,10.0,7.49,103.0,,'11111222,11111222,99999999' 
WAVCIS,ioos:station:WAVCIS:CSI03:3,2013-01-08T08:00:00Z,29.4412,-92.0613,10.0,7.98,96.0,,'11111222,11111222,99999999' 
WAVCIS,ioos:station:WAVCIS:CSI03:3,2013-01-08T09:00:00Z,29.4412,-92.0613,10.0,6.955,100.0,,'11111222,11111222,99999999' 
WAVCIS,ioos:station:WAVCIS:CSI03:3,2013-01-08T10:00:00Z,29.4412,-92.0613,10.0,7.7,94.0,,'11111222,11111222,99999999' 
WAVCIS,ioos:station:WAVCIS:CSI03:3,2013-01-08T11:00:00Z,29.4412,-92.0613,10.0,7.07,85.0,,'11111222,11111222,99999999' 
WAVCIS,ioos:station:WAVCIS:CSI03:3,2013-01-08T12:00:00Z,29.4412,-92.0613,10.0,6.899,97.0,,'11111222,11111222,99999999' 
WAVCIS,ioos:station:WAVCIS:CSI03:3,2013-01-08T13:00:00Z,29.4412,-92.0613,10.0,8.68,91.0,,'11111222,11111222,99999999' 
WAVCIS,ioos:station:WAVCIS:CSI03:3,2013-01-08T14:00:00Z,29.4412,-92.0613,10.0,8.26,90.0,,'11111222,11111222,99999999' 
WAVCIS,ioos:station:WAVCIS:CSI03:3,2013-01-08T15:00:00Z,29.4412,-92.0613,10.0,6.875,98.0,,'11111222,11111222,99999999' 
WAVCIS,ioos:station:WAVCIS:CSI03:3,2013-01-08T16:00:00Z,29.4412,-92.0613,10.0,9.62,91.0,,'11111222,11111222,99999999' 
WAVCIS,ioos:station:WAVCIS:CSI03:3,2013-01-08T17:00:00Z,29.4412,-92.0613,10.0,8.45,94.0,,'11111222,11111222,99999999' 
WAVCIS,ioos:station:WAVCIS:CSI03:3,2013-01-08T18:00:00Z,29.4412,-92.0613,10.0,11.26,98.0,,'11111222,11111222,99999999' 
WAVCIS,ioos:station:WAVCIS:CSI03:3,2013-01-08T19:00:00Z,29.4412,-92.0613,10.0,11.38,82.0,,'11111222,11111222,99999999' 
WAVCIS,ioos:station:WAVCIS:CSI03:3,2013-01-08T20:00:00Z,29.4412,-92.0613,10.0,10.73,63.0,,'11111222,11111222,99999999' 
WAVCIS,ioos:station:WAVCIS:CSI03:3,2013-01-08T21:00:00Z,29.4412,-92.0613,10.0,9.6,60.0,,'11111222,11111222,99999999' 
WAVCIS,ioos:station:WAVCIS:CSI03:3,2013-01-08T22:00:00Z,29.4412,-92.0613,10.0,10.87,74.0,,'11111222,11111222,99999999' 
WAVCIS,ioos:station:WAVCIS:CSI03:3,2013-01-08T23:00:00Z,29.4412,-92.0613,10.0,9.19,68.0,,'11111222,11111222,99999999' 
WAVCIS,ioos:station:WAVCIS:CSI03:3,2013-01-09T00:00:00Z,29.4412,-92.0613,10.0,5.926,38.0,,'11111222,11111222,99999999' 
WAVCIS,ioos:station:WAVCIS:CSI03:3,2013-01-09T01:00:00Z,29.4412,-92.0613,10.0,7.8,48.0,,'11111222,11111222,99999999' 
WAVCIS,ioos:station:WAVCIS:CSI03:3,2013-01-09T02:00:00Z,29.4412,-92.0613,10.0,6.065,5.0,,'11111222,11111222,99999999' 
WAVCIS,ioos:station:WAVCIS:CSI03:3,2013-01-09T03:00:00Z,29.4412,-92.0613,10.0,10.77,63.0,,'11111222,11111222,99999999' 
WAVCIS,ioos:station:WAVCIS:CSI03:3,2013-01-09T04:00:00Z,29.4412,-92.0613,10.0,7.41,56.0,,'11111222,11111222,99999999' 
WAVCIS,ioos:station:WAVCIS:CSI03:3,2013-01-09T05:00:00Z,29.4412,-92.0613,10.0,7.59,60.0,,'11111222,11111222,99999999' 
WAVCIS,ioos:station:WAVCIS:CSI03:3,2013-01-09T06:00:00Z,29.4412,-92.0613,10.0,9.42,67.0,,'11111222,11111222,99999999' 